Dewpoint
70 70 70 70 69 69 69 70 68 69 68 67 68 66 63 66 70 70 70 69 69 70 70 69 68 68 67 68 69 68 68 68 65 65 65 61 64 67 71 72 71 71 70
70 69 69 69 69 69 69 69 70 69 69 67 66 66 63 62 67 69 69 68 68 66 67 68 68 67 68 69 68 68 68 69 66 65 67 66 67 69 71 69 71 72 71
70 70 69 69 69 68 68 68 69 70 67 68 67 66 63 60 66 69 69 69 69 69 68 67 68 68 68 67 67 68 68 68 69 67 67 68 68 71 71 72 71 72 72
68 69 69 68 68 68 68 67 67 69 69 68 67 66 64 63 70 70 70 69 70 69 70 70 68 69 69 68 67 67 68 68 67 67 66 66 68 69 70 69 69 71 71
67 68 68 69 69 68 68 68 67 67 69 69 68 69 70 70 69 70 71 70 69 68 69 70 70 70 70 69 67 67 68 68 68 67 67 67 67 66 67 68 68 68 69
65 66 68 70 69 69 68 68 69 67 69 69 68 68 69 69 69 69 71 70 69 69 68 68 68 68 69 69 69 68 69 68 66 66 66 66 66 67 68 67 68 66 63
60 65 66 67 67 68 69 68 67 68 68 69 68 68 67 68 69 69 68 70 69 69 68 68 68 69 68 69 68 67 68 69 68 67 66 66 68 69 68 67 67 66 67
59 60 63 66 67 67 68 68 68 68 67 69 69 69 69 68 68 68 67 66 68 69 70 69 68 67 67 68 70 69 67 68 68 68 67 67 67 69 70 70 69 69 70
56 58 59 64 67 68 68 69 68 69 68 68 70 69 69 69 69 69 68 66 67 68 68 69 70 69 68 67 67 68 69 69 71 70 69 68 68 68 70 71 69 68 66
57 57 61 62 65 67 66 65 66 68 67 68 69 70 70 69 69 68 67 68 66 66 67 68 68 68 69 68 68 68 68 68 69 70 69 68 68 69 69 70 69 68 67
59 59 60 61 61 65 66 65 67 66 66 67 69 69 69 70 70 69 67 68 68 67 67 67 68 67 66 67 67 69 68 69 69 70 70 70 70 70 70 69 70 70 68
59 58 59 61 62 62 65 65 63 62 62 64 63 62 61 61 65 68 68 66 69 67 66 66 66 66 66 64 64 67 68 69 69 69 69 68 67 67 70 70 70 71 69
60 60 60 60 61 61 62 64 64 61 58 55 56 56 60 61 62 61 62 64 66 68 68 67 66 65 65 65 64 64 65 67 68 68 67 67 67 68 71 70 69 67 66
60 60 60 60 59 60 62 63 64 64 62 60 58 57 58 60 60 61 61 65 65 64 66 66 66 64 64 65 64 64 66 66 67 67 67 67 67 69 69 68 66 65 63
60 60 60 60 59 59 59 60 64 64 63 62 61 59 57 59 58 60 62 62 62 64 66 66 65 65 65 65 66 65 65 66 66 66 66 66 68 68 68 68 66 65 62
60 60 60 59 58 58 58 58 60 64 63 62 61 61 61 59 59 61 58 59 58 59 62 66 66 66 65 65 65 66 66 66 66 66 67 67 67 67 67 67 65 64 62
60 60 61 61 60 58 57 57 57 59 60 59 59 59 59 61 59 60 58 58 61 59 64 67 67 66 66 66 66 66 66 67 67 67 67 67 67 66 66 64 62 59 59
61 61 61 61 60 59 58 58 58 57 58 59 58 58 57 58 58 57 54 60 60 62 64 61 64 66 66 67 66 66 66 66 65 66 66 67 66 65 63 61 58 56 55
60 61 62 62 61 60 59 59 57 55 56 59 62 57 57 55 54 56 55 58 58 61 61 59 61 65 68 66 65 65 65 65 65 66 66 65 65 63 60 59 57 56 55
60 59 61 61 61 61 60 59 58 57 54 56 60 61 59 57 58 58 59 61 63 61 61 61 61 63 68 67 65 65 65 65 65 65 65 64 61 59 58 57 57 55 55
59 61 61 60 58 59 60 58 57 57 56 54 58 62 60 58 59 60 61 61 61 63 62 62 61 64 65 64 64 64 64 64 64 65 64 62 60 59 57 57 55 55 53
61 61 60 58 58 59 57 55 55 55 56 58 60 62 55 55 58 62 62 62 63 63 65 66 66 66 66 63 63 63 62 64 64 63 62 61 59 58 57 56 56 54 54
60 60 60 60 60 60 59 58 59 59 58 58 55 59 58 60 62 64 64 64 64 65 66 68 67 66 64 62 64 63 62 62 63 61 60 59 58 58 56 55 54 54 54
55 55 55 56 56 60 61 60 60 59 59 58 60 60 61 61 62 64 64 65 65 65 66 67 67 64 62 60 61 63 63 63 62 60 58 58 57 56 56 55 55 54 53
52 52 53 52 53 54 55 56 59 60 59 60 60 61 61 61 61 62 63 63 63 62 63 64 67 64 61 59 58 61 62 60 60 59 58 57 56 56 55 55 54 54 54
51 51 51 51 51 51 51 52 53 54 56 60 61 62 61 61 61 62 62 63 63 62 63 60 57 62 62 61 60 59 56 55 56 57 58 57 56 56 56 55 55 55 54
Wind_Speed
21 21 18 18 17 15 16 13 16 11 17 15 21 22 16 10 15 14 14 11 8 12 8 9 6 3 6 6 5 6 3 13 8 4 6 6 7 10 8 10 12 15 16
18 19 20 18 18 17 16 17 14 13 14 20 21 23 18 16 13 14 12 11 11 12 11 9 10 8 10 5 2 4 6 3 4 12 14 11 11 8 10 14 13 11 15
10 17 19 20 22 20 17 17 16 13 19 18 17 17 19 19 16 16 14 14 15 13 13 13 14 13 11 7 3 1 4 4 2 3 11 18 17 11 10 10 12 17 13
12 5 14 18 22 22 21 21 21 17 18 19 21 20 20 18 17 15 14 17 17 15 14 15 17 18 15 11 9 9 6 4 4 3 6 8 5 10 11 15 15 13 17
14 11 7 8 17 19 20 21 23 21 20 20 20 19 20 18 17 17 17 20 20 18 17 15 14 13 15 16 13 12 10 9 7 5 7 6 7 6 8 11 15 8 7
10 12 14 10 9 17 19 20 21 24 21 22 23 23 21 20 21 23 20 20 20 19 20 20 17 16 13 13 18 19 16 14 12 10 10 11 9 5 2 0 2 3 4
17 15 14 15 14 13 16 17 20 20 21 22 23 22 24 22 22 26 27 19 20 22 21 21 18 13 15 14 19 21 19 19 14 16 16 16 11 9 6 7 5 5 7
15 17 18 16 15 15 15 19 20 20 22 23 23 24 24 23 26 27 25 20 18 22 22 22 22 19 17 13 10 15 19 17 17 16 18 17 17 14 12 11 11 6 6
14 15 18 17 15 14 15 16 20 20 22 22 21 24 26 26 27 29 26 21 20 21 20 19 20 21 21 21 18 16 17 18 15 19 19 20 20 17 13 7 11 8 9
14 16 15 15 16 15 16 16 15 18 23 23 23 22 27 29 28 29 27 22 21 19 18 18 21 20 22 23 21 20 20 20 18 15 11 11 14 17 14 15 14 13 9
15 17 18 18 18 15 15 16 13 13 13 12 16 20 23 22 23 28 28 21 23 21 19 19 19 25 29 27 27 21 20 16 17 16 16 13 12 13 14 13 12 12 12
14 17 20 20 17 15 15 17 13 10 7 5 1 8 7 14 21 18 29 32 27 23 23 21 20 24 30 32 27 24 21 14 12 13 14 15 15 16 14 15 12 10 8
18 19 18 20 19 16 17 16 17 18 19 18 11 20 14 7 19 22 23 34 37 29 26 25 19 25 29 28 27 21 17 15 15 15 18 18 16 15 12 12 11 13 10
20 19 18 19 23 17 18 17 19 19 17 14 16 15 18 15 16 24 15 21 13 16 20 23 19 19 17 18 14 13 15 17 17 17 17 18 13 11 15 15 12 14 7
19 18 17 18 20 17 18 19 20 22 22 19 20 22 16 19 16 15 18 15 11 13 15 12 11 12 15 14 13 14 15 14 15 16 17 16 15 17 16 16 12 12 9
19 17 15 17 18 16 17 19 24 31 30 33 27 23 19 22 12 24 24 9 10 12 10 20 19 17 20 19 19 17 15 16 17 16 17 16 18 17 17 14 13 14 15
19 17 16 18 19 19 18 18 18 14 22 24 32 32 31 23 34 33 28 16 6 5 15 17 20 20 19 18 18 18 18 18 18 19 17 18 17 16 19 18 16 15 12
18 19 18 17 18 19 18 17 17 17 18 17 22 30 30 29 27 26 20 20 13 12 8 6 16 18 18 19 18 19 18 19 21 18 17 15 18 17 16 20 19 16 14
18 15 16 17 17 20 19 16 16 18 18 15 8 12 22 18 20 18 13 18 19 20 16 9 16 25 18 18 18 18 18 20 20 17 19 19 17 18 19 19 20 19 16
18 21 20 18 18 18 18 17 14 16 18 17 15 15 10 15 13 16 16 16 12 21 21 15 23 28 26 19 20 20 20 19 19 19 19 18 17 19 20 19 19 17 18
16 17 20 18 13 16 17 16 13 16 17 14 16 15 21 16 14 18 21 21 17 13 20 27 27 28 26 23 21 22 20 21 20 19 19 20 19 18 19 19 20 18 15
17 19 17 15 16 14 16 15 15 15 17 9 7 14 18 10 12 18 20 20 23 24 25 26 27 28 22 21 21 22 23 22 21 20 20 20 19 19 19 18 18 17 16
16 18 17 15 15 18 18 13 14 15 15 12 10 10 16 16 14 18 19 19 17 18 22 15 18 20 19 17 16 21 22 22 21 22 22 21 21 20 19 18 17 13 13
17 16 16 16 18 14 12 17 18 20 20 18 13 9 9 14 12 8 8 10 7 8 14 19 18 17 20 18 18 18 17 17 19 24 25 22 22 21 19 18 17 16 16
20 19 19 19 20 18 18 22 23 15 14 10 4 5 2 3 4 6 5 1 2 9 12 16 16 17 18 21 19 21 23 26 24 24 22 23 23 24 22 21 19 17 17
22 22 20 20 20 21 21 22 20 22 22 17 15 11 5 6 10 13 10 4 1 9 9 16 16 7 7 5 9 18 25 33 31 29 24 22 23 21 21 22 23 20 19
Wind_Direction
186 185 190 198 207 213 224 247 226 212 166 182 194 201 228 242 232 218 211 227 261 229 237 259 280 287 304 316 20 19 66 133 230 207 248 319 314 276 263 211 208 213 219
187 182 189 195 200 214 215 231 245 209 182 183 200 218 224 234 246 210 220 232 233 232 240 252 250 246 260 251 349 354 350 349 121 188 227 248 258 254 225 215 223 220 221
231 198 192 193 195 204 212 219 238 209 191 195 203 224 221 236 243 222 216 233 239 244 237 242 251 238 234 213 213 300 321 319 46 157 206 228 237 250 216 231 228 242 245
11 314 211 208 200 203 203 207 219 230 196 198 202 212 230 228 229 219 219 230 235 234 239 247 249 248 227 207 209 220 227 263 296 304 291 278 229 234 213 222 234 243 255
356 357 325 309 233 214 208 205 210 219 219 211 213 210 215 226 233 226 220 228 228 234 241 245 251 241 224 211 210 220 217 220 237 256 272 288 304 273 231 223 228 259 264
348 338 332 334 324 250 224 217 207 211 217 215 217 222 222 223 231 228 216 221 230 233 240 247 245 248 248 233 217 217 212 201 214 222 243 257 256 246 285 67 250 238 278
325 320 316 312 318 287 268 244 236 215 213 215 217 216 225 229 225 227 229 220 223 228 230 236 241 240 238 240 242 234 219 214 216 224 236 242 250 250 269 284 291 268 244
312 311 305 297 289 299 282 260 249 239 230 217 217 217 219 226 228 235 236 230 234 225 220 224 228 232 233 233 244 243 232 227 231 228 231 238 237 236 231 243 248 250 262
297 298 300 304 283 288 288 278 264 247 241 233 216 216 219 225 222 225 230 232 237 237 222 215 217 224 230 240 243 248 235 230 229 225 226 234 236 236 233 218 237 229 264
270 281 286 300 300 277 278 287 287 284 263 240 232 220 217 223 223 223 221 223 228 230 236 235 229 229 230 232 231 229 228 228 225 230 234 242 238 239 220 213 233 236 221
275 276 280 279 280 278 266 274 269 274 271 281 269 257 242 227 225 225 221 216 223 227 229 234 234 236 236 233 223 220 226 225 228 227 231 238 244 242 234 221 221 220 221
279 285 283 275 269 272 264 267 252 230 236 246 107 293 339 355 341 279 227 221 226 228 233 234 234 230 234 235 230 229 231 220 222 223 225 235 240 246 238 213 207 199 187
282 272 275 277 269 258 262 251 250 247 242 246 236 247 240 225 303 310 322 265 232 227 236 237 233 231 238 235 230 225 209 214 222 228 231 234 235 240 201 158 144 142 133
281 275 267 270 271 256 252 252 245 253 250 230 228 226 248 254 216 264 297 301 267 259 255 234 223 231 223 215 200 198 204 211 213 223 229 233 240 214 179 160 170 175 173
276 270 264 266 269 266 255 250 236 240 235 243 235 240 214 215 219 231 237 263 284 288 250 228 202 196 202 205 211 209 212 213 218 227 229 228 217 185 181 177 176 182 192
275 269 261 264 266 265 270 258 243 231 233 232 227 222 231 233 221 197 216 227 282 323 263 227 221 207 199 201 207 213 213 216 220 222 225 222 198 191 189 186 186 192 201
273 263 261 262 265 268 270 273 280 269 244 243 227 220 220 223 229 239 244 204 156 73 233 221 219 212 211 207 204 206 212 212 213 217 220 215 203 199 197 196 196 192 197
277 268 258 258 259 264 264 268 278 272 270 238 234 231 231 224 220 224 225 185 184 162 163 323 297 239 213 206 203 206 205 206 211 215 218 214 206 202 197 196 194 198 208
292 273 258 250 248 253 259 266 269 270 271 268 221 237 230 224 219 243 265 240 209 181 183 200 284 271 223 210 208 207 204 204 204 207 215 216 213 198 196 196 197 200 205
299 295 283 268 252 250 253 252 268 264 254 246 228 222 166 197 223 240 257 264 241 165 185 199 218 254 243 216 207 210 205 203 203 204 207 206 197 188 193 196 193 201 213
288 296 286 282 278 251 242 248 260 269 265 241 224 195 180 180 198 225 227 237 237 216 217 205 217 234 226 212 201 204 197 199 200 199 201 198 195 196 195 195 198 209 217
303 295 286 268 279 283 253 258 256 259 269 251 179 211 203 217 205 230 227 219 219 224 231 226 222 226 223 213 202 200 200 194 194 189 193 192 194 197 192 189 198 207 207
360 357 352 314 299 288 277 256 262 260 262 240 238 221 212 214 215 211 209 216 217 223 235 238 222 225 219 215 198 192 195 196 185 181 186 189 193 195 191 196 202 201 204
7 7 6 1 351 348 346 323 269 254 249 239 212 199 175 199 211 239 252 232 223 243 246 247 236 235 220 209 196 195 197 191 176 181 181 188 192 193 192 192 195 207 214
14 14 13 16 11 5 7 6 354 293 266 219 181 100 195 232 246 260 294 306 306 334 310 259 242 235 227 214 206 196 200 187 176 178 182 185 194 194 195 196 201 210 216
19 21 22 23 21 19 17 32 16 18 16 48 54 45 38 53 59 74 66 58 235 46 22 50 35 310 275 293 320 219 191 187 185 183 182 188 195 196 194 198 201 202 208